• en France
  • Liste des pays
  • À 7 jours
  • Température de l'eau
  • Carte satellitaire
  • Carte météo
  • Widgets météo
  • user-avatar
    Se connecter

    Météo par heure à Matveevka

    Ce jour, 18 Octobre, Jeudi

    Heure Température Précipitation Vent Pression Humidité
    00:00 +13°C° 0 mm 0 m/s 750 mmHg 83%
    01:00 +12°C° 0 mm 0 m/s 750 mmHg 83%
    02:00 +12°C° 0 mm 0 m/s 750 mmHg 84%
    03:00 +12°C° 0 mm 0 m/s 749 mmHg 84%
    04:00 +12°C° 0 mm 0 m/s 749 mmHg 85%
    05:00 +11°C° 0 mm 0 m/s 749 mmHg 85%
    06:00 +12°C° 0 mm 0 m/s 749 mmHg 82%
    07:00 +13°C° 0 mm 0 m/s 749 mmHg 80%
    08:00 +14°C° 0 mm 0 m/s 749 mmHg 77%
    09:00 +15°C° 0 mm 0 m/s 749 mmHg 71%
    10:00 +18°C° 0 mm 1 m/s 749 mmHg 65%
    11:00 +20°C° 0 mm 1 m/s 749 mmHg 59%
    12:00 +20°C° 0 mm 1 m/s 749 mmHg 57%
    13:00 +21°C° 0 mm 1 m/s 748 mmHg 55%
    14:00 +21°C° 0 mm 1 m/s 748 mmHg 53%
    15:00 +20°C° 0 mm 1 m/s 748 mmHg 57%
    16:00 +19°C° 0 mm 1 m/s 747 mmHg 62%
    17:00 +16°C° 0 mm 1 m/s 747 mmHg 67%
    18:00 +16°C° 0 mm 1 m/s 747 mmHg 69%
    19:00 +15°C° 0 mm 1 m/s 747 mmHg 71%
    20:00 +15°C° 0 mm 1 m/s 747 mmHg 73%
    21:00 +14°C° 0 mm 1 m/s 747 mmHg 74%
    22:00 +14°C° 0 mm 2 m/s 747 mmHg 76%
    23:00 +14°C° 0 mm 2 m/s 746 mmHg 77%

    Demain, 19 Octobre, Vendredi

    Heure Température Précipitation Vent Pression Humidité
    00:00 +13°C° 0 mm 2 m/s 746 mmHg 78%
    01:00 +13°C° 0 mm 2 m/s 746 mmHg 79%
    02:00 +13°C° 0 mm 2 m/s 746 mmHg 80%
    03:00 +12°C° 0 mm 2 m/s 746 mmHg 80%
    04:00 +12°C° 0 mm 2 m/s 745 mmHg 80%
    05:00 +12°C° 0 mm 2 m/s 745 mmHg 80%
    06:00 +12°C° 0 mm 2 m/s 745 mmHg 77%
    07:00 +13°C° 0 mm 2 m/s 745 mmHg 74%
    08:00 +14°C° 0 mm 2 m/s 745 mmHg 71%
    09:00 +15°C° 0 mm 2 m/s 745 mmHg 64%
    10:00 +17°C° 0 mm 2 m/s 745 mmHg 58%
    11:00 +18°C° 0 mm 2 m/s 744 mmHg 52%
    12:00 +19°C° 0 mm 2 m/s 744 mmHg 51%
    13:00 +19°C° 0 mm 2 m/s 744 mmHg 50%
    14:00 +20°C° 0 mm 2 m/s 744 mmHg 48%
    15:00 +18°C° 0 mm 2 m/s 743 mmHg 53%
    16:00 +17°C° 0 mm 2 m/s 743 mmHg 58%
    17:00 +16°C° 0 mm 2 m/s 743 mmHg 63%
    18:00 +15°C° 0 mm 1 m/s 743 mmHg 65%
    19:00 +15°C° 0 mm 1 m/s 743 mmHg 68%
    20:00 +14°C° 0 mm 1 m/s 743 mmHg 71%
    21:00 +14°C° 0 mm 1 m/s 743 mmHg 73%
    22:00 +13°C° 0 mm 1 m/s 743 mmHg 76%
    23:00 +13°C° 0 mm 1 m/s 743 mmHg 79%

    Après-demain, 20 Octobre, Samedi

    Heure Température Précipitation Vent Pression Humidité
    00:00 +12°C° 0 mm 2 m/s 743 mmHg 82%
    01:00 +12°C° 0 mm 2 m/s 743 mmHg 85%
    02:00 +12°C° 0 mm 2 m/s 743 mmHg 89%
    03:00 +10°C° 0 mm 2 m/s 743 mmHg 91%
    04:00 +10°C° 0 mm 3 m/s 743 mmHg 93%
    05:00 +10°C° 0 mm 3 m/s 743 mmHg 95%
    06:00 +10°C° 0 mm 4 m/s 743 mmHg 93%
    07:00 +10°C° 0 mm 4 m/s 744 mmHg 91%
    08:00 +10°C° 0 mm 4 m/s 744 mmHg 89%
    09:00 +10°C° 0 mm 4 m/s 745 mmHg 86%
    10:00 +11°C° 0 mm 4 m/s 745 mmHg 82%
    11:00 +11°C° 0 mm 4 m/s 745 mmHg 78%
    12:00 +11°C° 0 mm 3 m/s 745 mmHg 73%
    13:00 +12°C° 0 mm 3 m/s 745 mmHg 68%
    14:00 +12°C° 0 mm 3 m/s 745 mmHg 63%
    15:00 +11°C° 0 mm 3 m/s 745 mmHg 64%
    16:00 +10°C° 0 mm 3 m/s 745 mmHg 65%
    17:00 +9°C° 0 mm 2 m/s 745 mmHg 66%
    18:00 +9°C° 0 mm 2 m/s 745 mmHg 68%
    19:00 +8°C° 0 mm 2 m/s 745 mmHg 69%
    20:00 +7°C° 0 mm 2 m/s 746 mmHg 71%
    21:00 +7°C° 0 mm 2 m/s 745 mmHg 73%
    22:00 +6°C° 0 mm 2 m/s 745 mmHg 75%
    23:00 +7°C° 0 mm 1 m/s 745 mmHg 76%

    21 Octobre, Dimanche

    Heure Température Précipitation Vent Pression Humidité
    00:00 +7°C° 0 mm 1 m/s 745 mmHg 78%
    01:00 +6°C° 0 mm 1 m/s 745 mmHg 79%
    02:00 +6°C° 0 mm 1 m/s 745 mmHg 81%
    03:00 +6°C° 0 mm 1 m/s 745 mmHg 82%
    04:00 +5°C° 0 mm 1 m/s 745 mmHg 84%
    05:00 +5°C° 0 mm 1 m/s 745 mmHg 85%
    06:00 +6°C° 0 mm 1 m/s 745 mmHg 82%
    07:00 +6°C° 0 mm 1 m/s 745 mmHg 80%
    08:00 +7°C° 0 mm 1 m/s 745 mmHg 77%
    09:00 +7°C° 0 mm 2 m/s 745 mmHg 71%
    10:00 +8°C° 0 mm 2 m/s 745 mmHg 64%
    11:00 +10°C° 0 mm 2 m/s 745 mmHg 58%
    12:00 +10°C° 0 mm 3 m/s 745 mmHg 56%
    13:00 +10°C° 0 mm 3 m/s 745 mmHg 54%
    14:00 +11°C° 0 mm 3 m/s 745 mmHg 52%
    15:00 +10°C° 0 mm 3 m/s 745 mmHg 57%
    16:00 +9°C° 0 mm 3 m/s 745 mmHg 63%
    17:00 +8°C° 0 mm 3 m/s 746 mmHg 68%
    18:00 +7°C° 0 mm 3 m/s 746 mmHg 71%
    19:00 +7°C° 0 mm 3 m/s 746 mmHg 74%
    20:00 +5°C° 0 mm 3 m/s 747 mmHg 77%
    21:00 +5°C° 0 mm 3 m/s 747 mmHg 79%
    22:00 +5°C° 0 mm 3 m/s 747 mmHg 81%
    23:00 +4°C° 0 mm 3 m/s 747 mmHg 83%

    22 Octobre, Lundi

    Heure Température Précipitation Vent Pression Humidité
    00:00 +4°C° 0 mm 3 m/s 747 mmHg 85%
    01:00 +4°C° 0 mm 3 m/s 747 mmHg 87%
    02:00 +3°C° 0 mm 3 m/s 747 mmHg 89%
    03:00 +3°C° 0 mm 3 m/s 747 mmHg 90%
    04:00 +3°C° 0 mm 3 m/s 747 mmHg 91%
    05:00 +3°C° 0 mm 3 m/s 747 mmHg 92%
    06:00 +3°C° 0 mm 3 m/s 747 mmHg 88%
    07:00 +4°C° 0 mm 3 m/s 748 mmHg 85%
    08:00 +5°C° 0 mm 3 m/s 748 mmHg 81%
    09:00 +7°C° 0 mm 3 m/s 748 mmHg 75%
    10:00 +9°C° 0 mm 3 m/s 747 mmHg 69%
    11:00 +10°C° 0 mm 2 m/s 747 mmHg 62%
    12:00 +12°C° 0 mm 2 m/s 747 mmHg 61%
    13:00 +12°C° 0 mm 2 m/s 746 mmHg 60%
    14:00 +13°C° 0 mm 1 m/s 746 mmHg 59%
    15:00 +12°C° 0 mm 1 m/s 746 mmHg 64%
    16:00 +11°C° 0 mm 1 m/s 746 mmHg 68%
    17:00 +10°C° 0 mm 1 m/s 746 mmHg 72%
    18:00 +10°C° 0 mm 1 m/s 745 mmHg 74%
    19:00 +9°C° 0 mm 1 m/s 745 mmHg 76%
    20:00 +8°C° 0 mm 0 m/s 745 mmHg 79%
    21:00 +9°C° 0 mm 1 m/s 745 mmHg 79%
    22:00 +9°C° 0 mm 1 m/s 744 mmHg 80%
    23:00 +9°C° 0 mm 1 m/s 744 mmHg 81%

    23 Octobre, Mardi

    Heure Température Précipitation Vent Pression Humidité
    00:00 +8°C° 0 mm 1 m/s 744 mmHg 81%
    01:00 +8°C° 0 mm 1 m/s 744 mmHg 82%
    02:00 +8°C° 0 mm 1 m/s 743 mmHg 82%
    03:00 +8°C° 0 mm 1 m/s 743 mmHg 82%
    04:00 +8°C° 0 mm 1 m/s 742 mmHg 82%
    05:00 +7°C° 0 mm 1 m/s 742 mmHg 82%
    06:00 +8°C° 0 mm 1 m/s 742 mmHg 80%
    07:00 +8°C° 0 mm 1 m/s 742 mmHg 79%
    08:00 +8°C° 0 mm 1 m/s 741 mmHg 77%
    09:00 +9°C° 0.1 mm 1 m/s 741 mmHg 76%
    10:00 +9°C° 0.1 mm 2 m/s 740 mmHg 74%
    11:00 +10°C° 0.1 mm 2 m/s 740 mmHg 73%
    12:00 +9°C° 0.7 mm 2 m/s 739 mmHg 77%
    13:00 +9°C° 0.7 mm 2 m/s 739 mmHg 81%
    14:00 +9°C° 0.7 mm 2 m/s 738 mmHg 85%
    15:00 +9°C° 0.9 mm 2 m/s 738 mmHg 87%
    16:00 +9°C° 0.9 mm 2 m/s 738 mmHg 90%
    17:00 +9°C° 0.9 mm 3 m/s 737 mmHg 92%
    18:00 +9°C° 0.7 mm 3 m/s 737 mmHg 92%
    19:00 +9°C° 0.7 mm 3 m/s 736 mmHg 93%
    20:00 +8°C° 0.7 mm 3 m/s 736 mmHg 93%
    21:00 +8°C° 1.3 mm 2 m/s 735 mmHg 93%
    22:00 +8°C° 1.3 mm 2 m/s 735 mmHg 94%
    23:00 +8°C° 1.3 mm 2 m/s 734 mmHg 94%
    Voir plus